sat.trackr.live / text

‹ back to catalog

STARLINK-3415

NORAD 51472 · 2022-010S

PAYLOAD ACTIVE UNKNOWN

§ Identity

Operator
Country
US
Launch date
2022-02-03
Launch site
AFETR
Launch vehicle
Mass (kg)
RCS (m²)

Purposes: comms

External: N2YO · Heavens-Above · Gunter

§ Orbital elements

Epoch: 2026-09-20T03:37:55.000992Z

Period
93.85 min
Inclination
53.1604°
Eccentricity
0.0000927
Mean motion
15.34405546 rev/d
Perigee alt
462.1 km
Apogee alt
463.3 km
Semi-major
6,840.8 km
B*
1.9586e-4
RAAN
117.0035°
Arg perigee
78.2299°
Mean anomaly
281.8808°
Rev number
25,630

§ Raw data

STARLINK-34151 51472U 22010S   26263.15133103  .00006248  00000+0  19586-3 0  99912 51472  53.1604 117.0035 0000927  78.2299 281.8808 15.34405546256300

JSON: /api/v1/satellites/51472 · /tle

For live sub-satellite position, see the globe view (requires WebGL).

§ Visibility from observer

Set your observer location to see the next 7 days of passes ≥ 10°. The values pass through the URL so the page stays shareable.

No JS? Fill the form by hand. The geolocation button needs JavaScript.